Location: French Creek State Gamelands
(40.1750°N, 75.7969°W)
Time: 06:00:25
(UTC-04:00)

ISS - All Passes

Search period start: 22 May 2015 00:00
Search period end: 01 June 2015 00:00
Orbit: 399 x 404 km, 51.6° (Epoch: 21 May)

Date Brightness Start Highest point End Pass type
(mag) Time Alt. Az. Time Alt. Az. Time Alt. Az.
22 May - 02:01:14 10° SW 02:04:28 88° SSE 02:07:45 10° NE visible
22 May - 03:38:55 10° WNW 03:41:17 18° NNW 03:43:38 10° NNE visible
22 May - 05:17:38 10° NNW 05:18:42 11° N 05:19:47 10° NNE daylight
22 May - 06:53:39 10° NNW 06:56:06 19° NNE 06:58:35 10° ENE daylight
22 May - 08:29:35 10° NW 08:32:51 77° SW 08:36:07 10° SE daylight
23 May - 01:08:16 10° SSW 01:11:20 42° SE 01:14:27 10° ENE visible
23 May - 02:45:04 10° W 02:47:52 26° NNW 02:50:40 10° NNE visible
23 May - 04:23:54 10° NNW 04:25:09 12° N 04:26:24 10° NNE visible
23 May - 06:00:42 10° NNW 06:02:39 15° NNE 06:04:37 10° NE daylight
23 May - 07:36:25 10° NW 07:39:38 54° NNE 07:42:51 10° ESE daylight
23 May - 09:13:40 10° W 09:15:47 16° SW 09:17:49 10° S daylight
24 May - 00:15:45 10° S 00:18:15 21° SE 00:20:48 10° E night (unlit)
24 May - 01:51:24 10° WSW 01:54:30 41° NNW 01:57:37 10° NE visible
24 May - 03:29:53 10° NW 03:31:36 13° NNW 03:33:18 10° NNE visible
24 May - 05:07:40 10° NNW 05:09:06 12° N 05:10:33 10° NE visible
24 May - 06:43:20 10° NW 06:46:18 31° NNE 06:49:17 10° E daylight
24 May - 08:19:46 10° WNW 08:22:43 31° SW 08:25:38 10° SSE daylight
24 May - 23:24:33 10° SE 23:25:11 11° SE 23:25:58 10° ESE night (unlit)
25 May - 00:57:58 10° SW 01:01:12 78° NW 01:04:28 10° NE visible
25 May - 02:35:49 10° WNW 02:38:03 17° NNW 02:40:17 10° NNE visible
25 May - 04:14:25 10° NNW 04:15:29 11° N 04:16:35 10° NNE visible
25 May - 05:50:18 10° NNW 05:52:52 21° NNE 05:55:27 10° ENE daylight
25 May - 07:26:17 10° WNW 07:29:32 64° SW 07:32:46 10° SE daylight
26 May - 00:04:48 10° SW 00:07:57 50° SE 00:11:08 10° ENE visible
26 May - 01:41:50 10° W 01:44:32 23° NNW 01:47:14 10° NNE visible
26 May - 03:20:42 10° NNW 03:21:52 11° N 03:23:01 10° NNE visible
26 May - 04:57:16 10° NNW 04:59:19 16° NNE 05:01:24 10° NE visible
26 May - 06:33:01 10° NW 06:36:15 63° NE 06:39:30 10° ESE daylight
26 May - 08:10:37 10° W 08:12:20 13° SW 08:13:58 10° SSW daylight
26 May - 23:12:04 10° S 23:14:45 24° SE 23:17:29 10° ENE night (unlit)
27 May - 00:48:01 10° W 00:51:04 36° NNW 00:54:08 10° NE visible
27 May - 02:26:37 10° NW 02:28:13 13° N 02:29:47 10° NNE visible
27 May - 04:04:10 10° NNW 04:05:42 13° N 04:07:16 10° NE visible
27 May - 05:39:49 10° NW 05:42:51 35° NNE 05:45:54 10° E daylight
27 May - 07:16:23 10° WNW 07:19:11 26° SW 07:21:57 10° SSE daylight
27 May - 22:20:11 10° SSE 22:21:35 12° SE 22:23:07 10° ESE night (unlit)
27 May - 23:54:26 10° WSW 23:57:39 67° NW 00:00:54 10° NE visible
28 May - 01:32:27 10° WNW 01:34:34 16° NNW 01:36:39 10° NNE visible
28 May - 03:10:54 10° NNW 03:12:01 11° N 03:13:09 10° NNE visible
28 May - 04:46:41 10° NNW 04:49:20 23° NNE 04:52:01 10° ENE visible
28 May - 06:22:45 10° WNW 06:25:57 54° SW 06:29:08 10° SE daylight
28 May - 23:01:06 10° SW 23:04:18 60° SE 23:07:31 10° ENE night (unlit)
29 May - 00:38:21 10° WNW 00:40:56 21° NNW 00:43:31 10° NNE visible
29 May - 02:17:12 10° NNW 02:18:17 11° N 02:19:22 10° NNE visible
29 May - 03:53:33 10° NNW 03:55:44 16° NNE 03:57:56 10° ENE visible
29 May - 05:29:20 10° NW 05:32:36 74° NE 05:35:51 10° ESE daylight
29 May - 07:07:28 10° WSW 07:08:38 11° SW 07:09:39 10° SSW daylight
29 May - 22:08:10 10° SSW 22:11:00 29° SE 22:13:52 10° ENE night (unlit)
29 May - 23:44:23 10° W 23:47:21 32° NNW 23:50:21 10° NE visible
30 May - 01:23:04 10° NW 01:24:33 12° N 01:25:59 10° NNE visible
30 May - 03:00:23 10° NNW 03:02:01 13° N 03:03:42 10° NE visible
30 May - 04:36:02 10° NW 04:39:07 39° NNE 04:42:13 10° ESE visible
30 May - 06:12:45 10° W 06:15:23 22° SW 06:17:59 10° S daylight
30 May - 21:15:53 10° SSE 21:17:44 15° SE 21:19:40 10° E visible
30 May - 22:50:38 10° WSW 22:53:50 57° NW 22:57:03 10° NE visible
31 May - 00:28:49 10° NW 00:30:48 15° NNW 00:32:45 10° NNE visible
31 May - 02:07:05 10° NNW 02:08:15 11° N 02:09:27 10° NNE visible
31 May - 03:42:47 10° NNW 03:45:33 25° NNE 03:48:18 10° E visible
31 May - 05:18:56 10° WNW 05:22:04 45° SW 05:25:12 10° SSE daylight
31 May - 21:57:09 10° SW 22:00:22 71° SE 22:03:37 10° ENE visible
31 May - 23:34:35 10° WNW 23:37:04 20° NNW 23:39:33 10° NNE visible
